Home > Time Zones > World Clock > Weather > India > Surat > Past weeks

Flag for India Weather past 2 weeks in Surat, Gujarat, India

Now
81 °F

Fog.


Feels Like: 89 °F
Forecast: 79 / 83 °F
Wind: 2 mph from East

Location: Ahmadabad Airport

Current Time: Aug 1, 2014 at 6:33:33 AM

Latest Report: Aug 1, 2014 at 5:40 AM


Visibility: 2 mi

Pressure: 29.50 "Hg

Humidity: 100%

Dew point: 81 °F

Location of SuratLocation

Historic Weather in Surat — Graph

°F

Surat temperature yesterday

Maximum temperature yesterday: 95 °F (at 3:40 PM)
Minimum temperature yesterday: 81 °F (at 12:40 AM)
Average temperature yesterday: 85 °F

Past Weeks' High & Low Weather Summary

 TemperatureHumidityPressure
High97 °F (Jul 21, 2:40 PM)100% (Jul 17, 7:40 AM)29.74 "Hg (Jul 17, 7:40 AM)
Low75 °F (Jul 24, 10:40 PM)44% (Jul 21, 4:40 PM)29.39 "Hg (Jul 17, 3:40 PM)
Average84 °F85%29.54 "Hg
* Reported Jul 17 4:40 AM — Aug 1 4:40 AM, Surat, Weather by CustomWeather, © 2014

Note: Actual official high and low records may vary slightly from our data, if they occured in-between our weather recording intervals... More about our weather records

Advertising

Surat weather history for previous 24 hours

 ConditionsComfort  
Time TempWeatherWind HumidityBarometerVisibility
4:40 AM
Aug 1
81 °FFog.3 mph94%29.50 "Hg2 mi
3:40 AM81 °FPartly cloudy.3 mph100%29.50 "Hg2 mi
2:40 AM82 °FPartly cloudy.3 mph94%29.50 "Hg2 mi
1:40 AM82 °FPartly cloudy.5 mph94%29.53 "Hg2 mi
12:40 AM82 °FPartly cloudy.5 mph89%29.53 "Hg2 mi
11:40 PM
Jul 31
82 °FPartly cloudy.6 mph89%29.56 "Hg2 mi
10:40 PM82 °FPartly cloudy.3 mph89%29.56 "Hg2 mi
9:40 PM82 °FPartly cloudy.8 mph89%29.53 "Hg2 mi
8:40 PM84 °FPartly cloudy.8 mph84%29.50 "Hg2 mi
7:40 PM84 °FFog.8 mph89%29.50 "Hg2 mi
6:40 PM86 °FFog.9 mph84%29.47 "Hg2 mi
5:40 PM88 °FScattered clouds.9 mph84%29.45 "Hg3 mi
4:40 PM93 °FScattered clouds.6 mph71%29.45 "Hg3 mi
3:40 PM95 °FScattered clouds.5 mph67%29.45 "Hg3 mi
2:40 PM93 °FScattered clouds.5 mph71%29.47 "Hg3 mi
1:40 PM93 °FScattered clouds.6 mph71%29.50 "Hg3 mi
11:40 AM90 °FScattered clouds.2 mph75%29.53 "Hg2 mi
10:40 AM88 °FFog.3 mph79%29.56 "Hg2 mi
9:40 AM86 °FFog.No wind89%29.56 "Hg2 mi
8:40 AM84 °FFog.No wind100%29.53 "Hg1 mi
7:40 AM82 °FFog.No wind100%29.53 "Hg1 mi
Weather by CustomWeather, © 2014

See weather overviewHow to use our weather pages